Renton, WA
on Sunday, January 6, 2013

Sunday
Previous Day Next Day
Daily Summary
 ActualAverage (KSEA)Record (KSEA)
Temperature
Mean Temperature °F 41°F  
Max Temperature 46°F 46°F 57°F (2003)
Min Temperature 37°F 37°F 14°F (1982)
Degree Days
Heating Degree Days 24 24  
Month to date heating degree days 144  
Since 1 July heating degree days 2082  
Cooling Degree Days 0 0  
Month to date cooling degree days 0  
Year to date cooling degree days 0  
Moisture
Dew Point 39°F   
Average Humidity 91    
Maximum Humidity 100    
Minimum Humidity 80    
Precipitation
Precipitation 0.04 in 0.19 in 1.22 in (1956)
Month to date precipitation 1.11  
Year to date precipitation 1.11  
Snow
Snow 0.00 in in 2.00 in (1965)
Month to date snowfall  
Since 1 July snowfall  
Snow Depth in   
Wind
Wind Speed 4 mph   
Max Wind Speed 9 mph   
Max Gust Speed mph   
Visibility 10 miles   
Events Rain   

Key: T is trace of precipitation, MM is missing value
Source: NWS Daily Summary
Time(PST)TemperatureDew PointHumidity Pressure Visibility Wind DirectionWind SpeedGust SpeedPrecipitationEvents Conditions
12:00 AM 39.2°F 37.4°F 93% 30.16 in 3.0 miles ESE 4.6 mph - N/A   Overcast
12:14 AM 39.2°F 37.4°F 93% 30.16 in 4.0 miles ESE 5.8 mph - N/A   Overcast
12:49 AM 39.2°F 37.4°F 93% 30.16 in 10.0 miles ESE 8.1 mph - N/A   Overcast
12:53 AM 39.0°F 37.0°F 93% 30.17 in 10.0 miles ESE 9.2 mph - N/A   Overcast
1:35 AM 37.4°F 37.4°F 100% 30.16 in 10.0 miles ESE 3.5 mph - N/A   Scattered Clouds
1:42 AM 37.4°F 37.4°F 100% 30.16 in 10.0 miles SE 4.6 mph - N/A   Mostly Cloudy
1:53 AM 37.9°F 37.0°F 97% 30.19 in 10.0 miles SE 4.6 mph - N/A   Mostly Cloudy
2:53 AM 39.0°F 37.0°F 93% 30.20 in 10.0 miles ESE 4.6 mph - N/A   Overcast
3:10 AM 39.2°F 37.4°F 93% 30.18 in 10.0 miles East 9.2 mph - N/A   Overcast
3:53 AM 39.0°F 37.0°F 93% 30.18 in 10.0 miles ESE 6.9 mph - N/A   Mostly Cloudy
4:53 AM 39.9°F 37.9°F 93% 30.17 in 10.0 miles Calm Calm - N/A   Overcast
5:53 AM 39.9°F 37.9°F 93% 30.17 in 10.0 miles SE 4.6 mph - N/A   Overcast
6:53 AM 39.9°F 37.9°F 93% 30.18 in 10.0 miles SE 3.5 mph - 0.00 in   Mostly Cloudy
7:23 AM 39.2°F 37.4°F 93% 30.16 in 10.0 miles Calm Calm - 0.00 in Rain Light Rain
7:53 AM 39.9°F 37.9°F 93% 30.19 in 9.0 miles Calm Calm - 0.00 in Rain Light Rain
8:23 AM 39.2°F 39.2°F 100% 30.17 in 10.0 miles SE 3.5 mph - 0.00 in   Overcast
8:30 AM 41.0°F 39.2°F 93% 30.17 in 10.0 miles Calm Calm - 0.00 in   Overcast
8:53 AM 41.0°F 39.0°F 93% 30.20 in 10.0 miles Calm Calm - 0.00 in   Overcast
9:53 AM 43.0°F 39.0°F 86% 30.20 in 10.0 miles South 4.6 mph - N/A   Overcast
10:53 AM 43.0°F 39.9°F 89% 30.20 in 10.0 miles ESE 4.6 mph - N/A   Overcast
11:53 AM 45.0°F 39.9°F 82% 30.17 in 10.0 miles ESE 3.5 mph - N/A   Overcast
12:53 PM 45.0°F 39.9°F 82% 30.16 in 10.0 miles SSE 4.6 mph - 0.00 in Rain Light Rain
1:02 PM 44.6°F 39.2°F 81% 30.14 in 10.0 miles Calm Calm - 0.00 in Rain Light Rain
1:53 PM 46.0°F 41.0°F 83% 30.14 in 10.0 miles Calm Calm - 0.00 in Rain Light Rain
2:53 PM 45.0°F 41.0°F 86% 30.14 in 10.0 miles ESE 3.5 mph - 0.00 in   Overcast
3:53 PM 45.0°F 41.0°F 86% 30.12 in 10.0 miles Calm Calm - N/A   Overcast
4:53 PM 45.0°F 41.0°F 86% 30.11 in 10.0 miles Calm Calm - N/A   Overcast
5:53 PM 44.1°F 41.0°F 89% 30.10 in 10.0 miles East 3.5 mph - 0.00 in Rain Light Rain
6:53 PM 45.0°F 39.0°F 80% 30.10 in 10.0 miles SSE 4.6 mph - 0.01 in Rain Light Rain
7:53 PM 43.0°F 39.9°F 89% 30.09 in 10.0 miles ESE 5.8 mph - 0.00 in Rain Light Rain
8:53 PM 43.0°F 39.9°F 89% 30.07 in 10.0 miles ESE 8.1 mph - 0.01 in Rain Light Rain
9:53 PM 41.0°F 39.0°F 93% 30.05 in 10.0 miles ESE 5.8 mph - 0.00 in Rain Light Rain
10:53 PM 41.0°F 39.0°F 93% 30.03 in 10.0 miles Calm Calm - 0.01 in Rain Light Rain
11:53 PM 41.0°F 39.0°F 93% 30.01 in 10.0 miles Variable 3.5 mph - 0.01 in Rain Light Rain
Moon Phase
Jan. 06 Jan. 11 Jan. 18 Jan. 26 Feb. 03
Sunrise:07:55 AM (PST) Moon Rise:02:07 AM (PST)1/6
Sunset:04:34 PM (PST) Moon Set:12:12 PM (PST)1/6

Copyright © 2014 The Weather Underground, Inc.